[TLELIST] Archives

 

[TLELIST] Current TLEs

July 28th 2023 PDT

HST 1 20580U 90037B 23208.82661966 .00004926 00000-0 25718-3 0 9990 2 20580 28.4703 357.5330 0002937 94.6809 22.1603 15.13587950627625 ISS (ZARYA) 1 25544U 98067A 23209.27632608 .00056975 00000-0 10039-2 0 9997 2 25544 51.6409 124.9453 0001290 154.7757 348.2478 15.49863310408168 CXO 1 25867U 99040B 23210.26857190 .00000662 00000-0 00000-0 0 9990 2 25867 37.3711 191.4141 9049190 266.8820 0.5961 0.37814450 13330 ...Continue Reading

[TLELIST] Current TLEs

July 28th 2023 PDT

HST 1 20580U 90037B 23208.82661966 .00004926 00000-0 25718-3 0 9990 2 20580 28.4703 357.5330 0002937 94.6809 22.1603 15.13587950627625 ISS (ZARYA) 1 25544U 98067A 23209.27632608 .00056975 00000-0 10039-2 0 9997 2 25544 51.6409 124.9453 0001290 154.7757 348.2478 15.49863310408168 CXO 1 25867U 99040B 23210.26857190 .00000662 00000-0 00000-0 0 9990 2 25867 37.3711 191.4141 9049190 266.8820 0.5961 0.37814450 13330 ...Continue Reading

[TLELIST] Current TLEs

July 27th 2023 PDT

HST 1 20580U 90037B 23208.17710387 .00005192 00000-0 27165-3 0 9994 2 20580 28.4703 1.8556 0002877 92.5405 78.1130 15.13582096627796 ISS (ZARYA) 1 25544U 98067A 23208.30934329 .00015800 00000-0 28347-3 0 9999 2 25544 51.6413 129.7314 0000554 64.5675 79.5453 15.50079229408012 CXO 1 25867U 99040B 23210.26857190 .00000662 00000-0 00000-0 0 9990 2 25867 37.3711 191.4141 9049190 266.8820 0.5961 0.37814450 13330 ...Continue Reading

[TLELIST] Current TLEs

July 27th 2023 PDT

HST 1 20580U 90037B 23208.17710387 .00005192 00000-0 27165-3 0 9994 2 20580 28.4703 1.8556 0002877 92.5405 78.1130 15.13582096627796 ISS (ZARYA) 1 25544U 98067A 23208.30934329 .00015800 00000-0 28347-3 0 9999 2 25544 51.6413 129.7314 0000554 64.5675 79.5453 15.50079229408012 CXO 1 25867U 99040B 23210.26857190 .00000662 00000-0 00000-0 0 9990 2 25867 37.3711 191.4141 9049190 266.8820 0.5961 0.37814450 13330 ...Continue Reading

[TLELIST] Current TLEs

July 26th 2023 PDT

HST 1 20580U 90037B 23205.92764302 .00004829 00000-0 25212-3 0 9997 2 20580 28.4706 16.8313 0002908 67.1038 62.1782 15.13559894627180 ISS (ZARYA) 1 25544U 98067A 23206.28493277 .00013139 00000-0 23767-3 0 9990 2 25544 51.6396 139.7648 0000243 55.6182 304.4830 15.50013867407690 CXO 1 25867U 99040B 23207.62473364 .00000628 00000-0 00000-0 0 9995 2 25867 37.3827 191.6799 9050550 266.6716 0.5623 0.37816631 13320 ...Continue Reading

[TLELIST] Current TLEs

July 26th 2023 PDT

HST 1 20580U 90037B 23205.92764302 .00004829 00000-0 25212-3 0 9997 2 20580 28.4706 16.8313 0002908 67.1038 62.1782 15.13559894627180 ISS (ZARYA) 1 25544U 98067A 23206.28493277 .00013139 00000-0 23767-3 0 9990 2 25544 51.6396 139.7648 0000243 55.6182 304.4830 15.50013867407690 CXO 1 25867U 99040B 23207.62473364 .00000628 00000-0 00000-0 0 9995 2 25867 37.3827 191.6799 9050550 266.6716 0.5623 0.37816631 13320 ...Continue Reading

[TLELIST] Current TLEs

July 25th 2023 PDT

HST 1 20580U 90037B 23205.58406306 .00004664 00000-0 24317-3 0 9998 2 20580 28.4707 19.1184 0002907 63.2111 350.2435 15.13556184627131 ISS (ZARYA) 1 25544U 98067A 23205.57250000 .00012724 00000-0 23060-3 0 9991 2 25544 51.6417 143.2886 0000422 81.2371 260.8567 15.49994356407581 CXO 1 25867U 99040B 23207.62473364 .00000628 00000-0 00000-0 0 9995 2 25867 37.3827 191.6799 9050550 266.6716 0.5623 0.37816631 13320 ...Continue Reading

[TLELIST] Current TLEs

July 24th 2023 PDT

HST 1 20580U 90037B 23201.97463756 .00004784 00000-0 24992-3 0 9991 2 20580 28.4703 43.1452 0002741 28.4722 119.0256 15.13524419626855 ISS (ZARYA) 1 25544U 98067A 23203.12476910 .00011930 00000-0 21722-3 0 9991 2 25544 51.6411 155.4137 0000523 72.9869 282.0755 15.49927938407206 CXO 1 25867U 99040B 23204.98031003 .00000605 00000-0 00000+0 0 9995 2 25867 37.3941 191.9836 9053767 266.4267 0.5015 0.37817231 24474 ...Continue Reading

[TLELIST] Current TLEs

July 23rd 2023 PDT

HST 1 20580U 90037B 23201.97463756 .00004784 00000-0 24992-3 0 9991 2 20580 28.4703 43.1452 0002741 28.4722 119.0256 15.13524419626855 ISS (ZARYA) 1 25544U 98067A 23203.12476910 .00011930 00000-0 21722-3 0 9991 2 25544 51.6411 155.4137 0000523 72.9869 282.0755 15.49927938407206 CXO 1 25867U 99040B 23204.98031003 .00000605 00000-0 00000+0 0 9995 2 25867 37.3941 191.9836 9053767 266.4267 0.5015 0.37817231 24474 ...Continue Reading

[TLELIST] Current TLEs

July 22nd 2023 PDT

HST 1 20580U 90037B 23201.97463756 .00004784 00000-0 24992-3 0 9991 2 20580 28.4703 43.1452 0002741 28.4722 119.0256 15.13524419626855 ISS (ZARYA) 1 25544U 98067A 23203.12476910 .00011930 00000-0 21722-3 0 9991 2 25544 51.6411 155.4137 0000523 72.9869 282.0755 15.49927938407206 CXO 1 25867U 99040B 23204.98031003 .00000605 00000-0 00000+0 0 9995 2 25867 37.3941 191.9836 9053767 266.4267 0.5015 0.37817231 24474 ...Continue Reading
  • This mailing list is a public mailing list - anyone may join or leave, at any time.
  • This mailing list is announce-only.

International Space Station (ISS) / Hubble Space Telescope (HST) / Chandra X-Ray Observatory Orbital Data via EMAIL

Privacy Policy:

Private list